Portland, OR

8:18 PM PST on February 23, 2018 (GMT -0800)
Portland International

Weather History for KPDX - February, 2013

Change the Weather History Date:

Friday, February 22, 2013

  Actual Average Record
Temperature  
Mean Temperature 43 °F 44 °F  
Max Temperature 48 °F 53 °F 64 °F (2002)
Min Temperature 37 °F 37 °F 27 °F (2010)
Degree Days  
Heating Degree Days 22 20  
Month to date heating degree days 453 474  
Since 1 July heating degree days 2781 2938  
Cooling Degree Days 0 0  
Month to date cooling degree days 0 0  
Year to date cooling degree days 0 0  
Moisture  
Dew Point 40 °F    
Average Humidity 79    
Maximum Humidity 86    
Minimum Humidity 71    
Precipitation  
Precipitation 0.39 in 0.13 in 1.09 in (1957)
Month to date precipitation 0.82 2.88  
Year to date precipitation 4.31 7.76  
Snow  
Snow 0.00 in - 1.00 in (1957)
Month to date snowfall 0.0  
Since 1 July snowfall 0.0  
Snow Depth 0.00 in    
Sea Level Pressure  
Sea Level Pressure 30.01 in    
Wind  
Wind Speed 13 mph (SSW)    
Max Wind Speed 24 mph    
Max Gust Speed 35 mph    
Visibility 9 miles    
Events Rain    
T = Trace of Precipitation, MM = Missing Value Source: NWS Daily Summary

Daily Weather History Graph

Daily Weather History Graph

Search for Another Location

Airport or City:

Trip Planner

Search our weather history database for the weather conditions in past years. The results will help you decide how hot, cold, wet, or windy it might be!

Date:

Astronomy

Feb. 22, 2013 Rise Set
Actual Time 7:00 AM PST 5:47 PM PST
Civil Twilight 6:30 AM PST 6:18 PM PST
Nautical Twilight 5:55 AM PST 6:52 PM PST
Astronomical Twilight 5:21 AM PST 7:26 PM PST
Moon 2:59 PM PST (2/22) 4:55 AM PST (2/22)
Length of Visible Light 11h 47m
Length of Day
10h 47m
Waxing Gibbous, 91% of the Moon is Illuminated
Feb 22
Waxing Gibbous
Feb 25
Full
Mar 4
Last Quarter
Mar 11
New
Mar 19
First Quarter

Hourly Weather History & Observations

Time (PST) Temp. Windchill Dew Point Humidity Pressure Visibility Wind Dir Wind Speed Gust Speed Precip Events Conditions
12:53 AM 44.1 °F 37.4 °F 39.0 °F 82% 30.17 in 10.0 mi South 13.8 mph - N/A   Overcast
1:53 AM 44.1 °F 37.7 °F 39.0 °F 82% 30.17 in 10.0 mi SSW 12.7 mph 20.7 mph N/A   Overcast
2:53 AM 44.1 °F 37.1 °F 39.0 °F 82% 30.15 in 10.0 mi South 15.0 mph - N/A   Overcast
3:53 AM 44.1 °F 38.1 °F 39.0 °F 82% 30.13 in 10.0 mi South 11.5 mph - N/A   Overcast
4:53 AM 44.1 °F 37.7 °F 39.0 °F 82% 30.11 in 10.0 mi SSW 12.7 mph - N/A   Overcast
5:17 AM 44.6 °F 38.8 °F 39.2 °F 81% 30.10 in 10.0 mi SSW 11.5 mph - N/A   Overcast
5:53 AM 45.0 °F 38.9 °F 39.0 °F 80% 30.10 in 10.0 mi South 12.7 mph - N/A   Overcast
6:18 AM 44.6 °F 39.2 °F 37.4 °F 76% 30.10 in 10.0 mi South 10.4 mph - N/A   Overcast
6:53 AM 46.0 °F 39.9 °F 37.9 °F 73% 30.06 in 10.0 mi South 13.8 mph - N/A   Overcast
7:53 AM 46.0 °F 39.3 °F 39.0 °F 76% 30.05 in 10.0 mi SSW 16.1 mph 24.2 mph N/A   Overcast
8:53 AM 46.0 °F 39.6 °F 39.0 °F 76% 30.03 in 10.0 mi SSW 15.0 mph 25.3 mph N/A   Overcast
9:53 AM 46.0 °F 39.6 °F 39.9 °F 79% 30.02 in 7.0 mi SSW 15.0 mph 26.5 mph 0.02 in Rain Light Rain
10:53 AM 46.0 °F 39.0 °F 41.0 °F 83% 29.99 in 10.0 mi South 17.3 mph 29.9 mph 0.05 in Rain Light Rain
11:53 AM 46.0 °F 38.8 °F 42.1 °F 86% 29.98 in 8.0 mi SSW 18.4 mph 27.6 mph 0.08 in Rain Light Rain
12:53 PM 46.0 °F 39.3 °F 41.0 °F 83% 29.94 in 10.0 mi South 16.1 mph 26.5 mph 0.07 in Rain Light Rain
1:53 PM 46.0 °F 39.0 °F 42.1 °F 86% 29.94 in 5.0 mi South 17.3 mph 27.6 mph 0.08 in Rain Rain
2:53 PM 46.0 °F 39.9 °F 42.1 °F 86% 29.90 in 10.0 mi South 13.8 mph 25.3 mph 0.03 in Rain Light Rain
3:25 PM 46.4 °F 39.5 °F 42.8 °F 87% 29.89 in 2.5 mi SSW 17.3 mph 24.2 mph 0.02 in Rain Rain
3:32 PM 46.4 °F 39.8 °F 42.8 °F 87% 29.89 in 3.0 mi SSW 16.1 mph - 0.03 in Rain Light Rain
3:44 PM 46.4 °F 39.0 °F 42.8 °F 87% 29.89 in 4.0 mi SSW 19.6 mph 24.2 mph 0.04 in Rain Light Rain
3:53 PM 46.9 °F - 43.0 °F 86% 29.91 in 7.0 mi SW 20.7 mph 29.9 mph 0.04 in Rain Light Rain
4:21 PM 48.2 °F - 44.6 °F 87% 29.90 in 10.0 mi SSW 15.0 mph - 0.02 in   Mostly Cloudy
4:53 PM 48.0 °F - 43.0 °F 83% 29.91 in 10.0 mi SSW 9.2 mph - 0.02 in   Mostly Cloudy
5:53 PM 46.9 °F - 43.0 °F 86% 29.92 in 10.0 mi South 4.6 mph - N/A   Mostly Cloudy
6:53 PM 44.1 °F 39.5 °F 39.0 °F 82% 29.94 in 10.0 mi WSW 8.1 mph - N/A   Mostly Cloudy
7:53 PM 43.0 °F 38.2 °F 37.9 °F 82% 29.97 in 10.0 mi West 8.1 mph - N/A   Scattered Clouds
8:53 PM 42.1 °F 36.6 °F 36.0 °F 79% 29.99 in 10.0 mi WSW 9.2 mph - N/A   Mostly Cloudy
9:53 PM 41.0 °F 32.8 °F 34.0 °F 76% 30.04 in 10.0 mi WNW 16.1 mph - 0.00 in Rain Light Rain
10:53 PM 39.0 °F 35.7 °F 35.1 °F 86% 30.06 in 10.0 mi SW 4.6 mph - 0.00 in   Mostly Cloudy
11:53 PM 37.9 °F 33.5 °F 34.0 °F 86% 30.07 in 10.0 mi SE 5.8 mph - N/A   Overcast